This is the latest recevied weather packets stored in our database for station/object KC2GYU. If no packets are shown the sender has not sent any weather packets the latest 10 day(s).
| Time | Temp. | Humidity | Pressure | Rain* | Wind** | Luminosity | Snow |
|---|---|---|---|---|---|---|---|
| 1778089263 | 17.22° C | 93% | 1010.5 hPa | 0 mm | - | 37 W/m² | - |
| 1778088961 | 17.78° C | 92% | 1010.6 hPa | 0 mm | - | 31 W/m² | - |
| 1778088658 | 17.78° C | 92% | 1010.4 hPa | 0 mm | - | 94 W/m² | - |
| 1778088356 | 17.78° C | 92% | 1010.5 hPa | 0 mm | - | 155 W/m² | - |
| 1778088051 | 17.22° C | 93% | 1010.6 hPa | 0 mm | - | 164 W/m² | - |
| 1778087749 | 17.22° C | 93% | 1010.7 hPa | 0 mm | - | 158 W/m² | - |
| 1778087446 | 17.22° C | 93% | 1010.6 hPa | 0 mm | - | 149 W/m² | - |
| 1778087144 | 17.78° C | 93% | 1010.4 hPa | 0 mm | - | 158 W/m² | - |
| 1778086841 | 17.78° C | 92% | 1010.6 hPa | 0 mm | - | 119 W/m² | - |
| 1778086540 | 17.78° C | 90% | 1010.9 hPa | 0 mm | - | 109 W/m² | - |
| 1778086236 | 17.78° C | 90% | 1011.2 hPa | 0 mm | - | 116 W/m² | - |
| 1778085932 | 17.78° C | 90% | 1011.2 hPa | 0 mm | - | 131 W/m² | - |
| 1778085630 | 17.78° C | 89% | 1011.3 hPa | 0 mm | - | 144 W/m² | - |
| 1778085326 | 17.78° C | 90% | 1011.3 hPa | 0 mm | - | 144 W/m² | - |
| 1778085021 | 17.78° C | 89% | 1011.5 hPa | 0 mm | - | 126 W/m² | - |
| 1778084718 | 17.78° C | 89% | 1011.6 hPa | 0 mm | - | 120 W/m² | - |
| 1778084409 | 17.78° C | 89% | 1011.6 hPa | 0 mm | - | 195 W/m² | - |
| 1778084107 | 17.78° C | 88% | 1011.6 hPa | 0 mm | - | 157 W/m² | - |
| 1778083798 | 17.78° C | 89% | 1011.7 hPa | 0 mm | - | 193 W/m² | - |
| 1778083496 | 18.33° C | 87% | 1011.5 hPa | 0 mm | - | 161 W/m² | - |
| 1778083193 | 17.78° C | 89% | 1011.7 hPa | 0 mm | - | 283 W/m² | - |
| 1778082891 | 17.78° C | 88% | 1011.9 hPa | 0 mm | - | 209 W/m² | - |
| 1778081782 | 18.89° C | 87% | 1012.2 hPa | 0 mm | - | 176 W/m² | - |
| 1778081479 | 18.33° C | 87% | 1012 hPa | 0 mm | - | 165 W/m² | - |
| 1778081177 | 19.44° C | 85% | 1012 hPa | 0 mm | - | 225 W/m² | - |
* Rain latest hour (hover to see other rain measurements)
** Current wind speed in m/s (hover to see current wind gust speed)